Regional Weather Roundup
Issued by NWS

Home | Current Version | Previous Version | Text Only | Print | Product List | Glossary Off
Versions: 1 2 3 4 5 6 7 8 9 10 11 12 13 14 15 16 17 18 19 20 21 22 23 24 25 26 27 28 29 30 31 32 33 34 35 36 37 38 39 40 41 42 43 44 45 46 47 48 49 50

000
ASUS43 KLMK 280910
RWRKY
KENTUCKY REGIONAL WEATHER ROUNDUP
NATIONAL WEATHER SERVICE LOUISVILLE KY
500 AM EDT TUE JUL 28 2015

NOTE "FAIR" INDICATES FEW OR NO CLOUDS BELOW 12,000 FEET
WITH NO SIGNIFICANT WEATHER AND/OR OBSTRUCTIONS TO VISIBILITY.

KYZ001>023-026-027-061>063-070>075-281000-
WESTERN AND SOUTH CENTRAL KENTUCKY

CITY           SKY/WX    TMP DP  RH WIND       PRES   REMARKS
PADUCAH        MOCLDY    76  74  93 CALM      29.94R
HENDERSON      PTCLDY    72  68  88 CALM      29.93S
OWENSBORO      PTCLDY    74  72  93 CALM      29.96R
HOPKINSVILLE   MOCLDY    74  73  95 E1        29.95S
BOWLING GREEN  MOCLDY    75  72  90 CALM      29.97R
GLASGOW        MOCLDY    71  71 100 CALM      29.98R FOG
$$

KYZ024-025-028>034-038-045-046-053-281000-
NORTH CENTRAL KENTUCKY

CITY           SKY/WX    TMP DP  RH WIND       PRES   REMARKS
LOUISVILLE/SDF CLOUDY    79  75  87 S8        29.95S
LOUISVILLE/LOU MOCLDY    78  74  87 S3        29.96S
FORT KNOX      CLOUDY    76  74  91 E2        29.94F
$$

KYZ035>037-039>044-047>052-055>060-089>105-281000-
NORTHEAST KENTUCKY

CITY           SKY/WX    TMP DP  RH WIND       PRES   REMARKS
LEXINGTON      PTCLDY    73  70  90 CALM      29.99R
COVINGTON      MOCLDY    75  71  87 CALM      29.98R
FRANKFORT      PTCLDY    72  69  90 CALM      29.97R
$$

KYZ054-064>069-076>088-106>120-281000-
SOUTHEAST KENTUCKY

CITY           SKY/WX    TMP DP  RH WIND       PRES   REMARKS
JACKSON        FOG       72  70  93 CALM      30.01S VSB 3/4
LONDON         MOCLDY    72  68  87 CALM      30.01S
SOMERSET       PTCLDY    70  70 100 CALM      30.01S FOG
MIDDLESBORO    CLOUDY    70  70 100 CALM      30.02S FOG
MONTICELLO     PTSUNNY   72  72 100 CALM      30.02S FOG
$$



USA.gov is the U.S. government's official web portal to all federal, state and local government web resources and services.